Location: Cambridge (historical)
(38.6883°N, 119.0140°W)
Time: 10:41:36
(UTC+00:00)

NO-84 - Visible Passes

Search period start: 21 September 2021 00:00
Search period end: 01 October 2021 00:00
Orbit: 297 x 378 km, 55.0° (Epoch: 14 September)

Date Brightness Start Highest point End Pass type
(mag) Time Alt. Az. Time Alt. Az. Time Alt. Az.
22 Sep ? 12:18:42 10° N 12:20:39 16° NNE 12:22:38 10° ENE visible
23 Sep ? 12:38:39 10° NNW 12:41:31 37° NE 12:44:23 10° ESE visible
24 Sep ? 11:27:22 13° NE 11:27:22 13° NE 11:28:45 10° ENE visible
24 Sep ? 12:59:03 10° NW 13:02:03 63° SW 13:05:05 10° SE visible
25 Sep ? 11:48:04 29° NE 11:48:04 29° NE 11:50:32 10° ESE visible
25 Sep ? 13:20:05 10° W 13:22:17 18° SW 13:24:30 10° S visible
26 Sep ? 12:08:54 47° SE 12:08:54 47° SE 12:11:11 10° SE visible
27 Sep ? 12:29:52 15° S 12:29:52 15° S 12:30:41 10° S visible
29 Sep ? 03:33:34 10° SW 03:33:48 12° SW 03:33:48 12° SW visible
30 Sep ? 02:19:56 10° S 02:21:45 17° SE 02:22:51 14° E visible
30 Sep ? 03:53:54 10° W 03:54:07 11° W 03:54:07 11° W visible
